User: anonymous
Location: Unspecified
(0.0000°N, 0.0000°E)
Time: 16:12:26
(UTC+00:00)
Language:

IBEX - Orbit

View from above orbital plane
View from above orbital plane
View from above satellite
View from above satellite

Ground track
Ground track

The orbit data is extracted from the following two-line orbital elements,

1 33401U 08051A   14256.48902675 -.00002752  00000-0  00000+0 0  1093
2 33401 004.8272 174.6651 5184036 324.7350 000.5093 00.10382580  2531
Epoch (UTC): 13 September 2014 11:44:11
Eccentricity: 0.5184036
inclination: 4.8272°
perigee height: 85711 km
apogee height: 283966 km
right ascension of ascending node: 174.6651°
argument of perigee: 324.7350°
revolutions per day: 0.10382580
mean anomaly at epoch: 0.5093°
orbit number at epoch: 253

The dashed part of the orbit path shows where the satellite is in the earth's shadow,  

DLR